TimeMDT,TemperatureF,Dew PointF,Humidity,Sea Level PressureIn,VisibilityMPH,Wind Direction,Wind SpeedMPH,Gust SpeedMPH,PrecipitationIn,Events,Conditions,WindDirDegrees,DateUTC
12:53 AM,45.0,24.1,44,29.62,10.0,NE,10.4,-,N/A,,Mostly Cloudy,50,2013-10-28 06:53:00
1:53 AM,48.9,21.9,35,29.64,10.0,NE,6.9,18.4,N/A,,Overcast,40,2013-10-28 07:53:00
2:53 AM,48.0,25.0,41,29.64,10.0,North,5.8,-,N/A,,Overcast,10,2013-10-28 08:53:00
3:53 AM,53.1,28.9,40,29.61,10.0,South,8.1,16.1,N/A,,Overcast,170,2013-10-28 09:53:00
4:53 AM,46.9,28.9,50,29.62,10.0,NE,6.9,18.4,0.00,,Overcast,50,2013-10-28 10:53:00
5:53 AM,46.0,35.1,66,29.62,10.0,North,12.7,-,0.00,,Overcast,360,2013-10-28 11:53:00
6:53 AM,44.1,30.0,58,29.61,10.0,North,10.4,-,0.00,,Overcast,10,2013-10-28 12:53:00
7:53 AM,45.0,30.9,58,29.61,10.0,NE,12.7,19.6,N/A,,Mostly Cloudy,40,2013-10-28 13:53:00
8:53 AM,48.0,30.9,52,29.62,10.0,NE,17.3,-,N/A,,Overcast,50,2013-10-28 14:53:00
9:53 AM,48.0,30.9,52,29.62,10.0,NNE,17.3,23.0,N/A,,Partly Cloudy,30,2013-10-28 15:53:00
10:53 AM,52.0,30.9,45,29.61,10.0,ENE,12.7,-,N/A,,Overcast,60,2013-10-28 16:53:00
11:53 AM,54.0,30.9,41,29.58,10.0,ENE,10.4,20.7,N/A,,Overcast,60,2013-10-28 17:53:00
12:53 PM,57.9,30.9,36,29.52,10.0,ENE,9.2,-,N/A,,Clear,70,2013-10-28 18:53:00
1:53 PM,57.9,30.0,35,29.49,10.0,Variable,4.6,16.1,N/A,,Overcast,0,2013-10-28 19:53:00
2:53 PM,57.9,30.0,35,29.49,10.0,SE,10.4,20.7,N/A,,Mostly Cloudy,130,2013-10-28 20:53:00
3:53 PM,55.9,30.9,39,29.47,10.0,ENE,13.8,21.9,N/A,,Scattered Clouds,70,2013-10-28 21:53:00
4:53 PM,50.0,36.0,59,29.55,10.0,SW,10.4,-,0.00,Rain,Light Rain,220,2013-10-28 22:53:00
5:53 PM,39.0,33.1,79,29.65,10.0,SW,17.3,25.3,0.00,Rain,Light Rain,230,2013-10-28 23:53:00
6:13 PM,35.1,32.0,89,29.69,2.5,West,18.4,28.8,0.08,Rain,Heavy Rain,260,2013-10-29 00:13:00
6:23 PM,35.1,32.0,89,29.69,4.0,West,18.4,32.2,0.12,Rain,Rain,280,2013-10-29 00:23:00
6:53 PM,33.1,32.0,96,29.77,6.0,WNW,15.0,24.2,0.23,Rain,Rain,290,2013-10-29 00:53:00
7:53 PM,33.1,33.1,100,29.80,8.0,NNW,9.2,19.6,0.07,Rain,Light Rain,340,2013-10-29 01:53:00
8:29 PM,34.0,34.0,100,29.77,10.0,East,11.5,18.4,0.01,Rain,Light Rain,80,2013-10-29 02:29:00
8:48 PM,33.8,-9999,N/A,29.78,10.0,ENE,11.5,-,0.01,,Overcast,60,2013-10-29 02:48:00
8:53 PM,34.0,-9999,N/A,29.78,10.0,ENE,9.2,-,0.01,,Overcast,60,2013-10-29 02:53:00
9:05 PM,35.1,-9999,N/A,29.78,10.0,NE,9.2,-,N/A,,Overcast,40,2013-10-29 03:05:00
9:53 PM,35.1,-9999,N/A,29.80,10.0,NE,9.2,-,N/A,,Mostly Cloudy,40,2013-10-29 03:53:00
10:53 PM,34.0,-9999,N/A,29.81,10.0,ENE,13.8,-,N/A,,Mostly Cloudy,60,2013-10-29 04:53:00
11:53 PM,33.1,-9999,N/A,29.81,10.0,ENE,9.2,-,N/A,,Overcast,60,2013-10-29 05:53:00